This demonstration page uses our WeatherBlox Daily Observations layout. Learn more.

Left ArrowRight Arrow

41.86663, -103.66717

Hourly Observations for January 11, 2021

Temp ( °F °C ) Dew Point ( °F °C ) Humidity (%) Winds ( mph kmh ) Pressure ( in mb ) Visibility ( mi km ) Precip ( " mm )
12:53 am 00:53 Clear 18 -7.8 11 -11.7 74 74 NW 6 9 30.27 1025 10 16 0.00 0.00
1:53 am 01:53 Clear 18 -7.8 11 -11.7 74 74 WNW 5 7 30.29 1026 10 16 0.00 0.00
2:53 am 02:53 Clear 16 -8.9 10 -12.2 77 77 NW 8 13 30.29 1026 10 16 0.00 0.00
3:53 am 03:53 Clear 15 -9.4 9 -12.8 77 77 NW 7 11 30.29 1026 10 16 0.00 0.00
4:53 am 04:53 Clear 17 -8.3 10 -12.2 74 74 NW 9 15 30.30 1026 10 16 0.00 0.00
5:53 am 05:53 Clear 15 -9.4 9 -12.8 77 77 NW 7 11 30.34 1027 10 16 0.00 0.00
6:53 am 06:53 Clear 14 -10 8 -13.3 77 77 WNW 6 9 30.36 1028 10 16 0.00 0.00
7:53 am 07:53 Sunny 16 -8.9 9 -12.8 74 74 NW 5 7 30.35 1028 10 16 0.00 0.00
8:53 am 08:53 Sunny 23 -5 15 -9.4 72 72 WNW 6 9 30.34 1027 10 16 0.00 0.00
9:53 am 09:53 Sunny 29 -1.7 18 -7.8 63 63 WNW 10 17 30.33 1027 10 16 0.00 0.00
10:53 am 10:53 Sunny 35 1.7 18 -7.8 50 50 WNW 12 19 30.28 1026 10 16 0.00 0.00
11:53 am 11:53 Sunny 42 5.6 17 -8.3 36 36 NW 17 28 30.25 1025 10 16 0.00 0.00
12:53 pm 12:53 Sunny 47 8.3 13 -10.6 25 25 WNW 14 22 30.21 1023 10 16 0.00 0.00
1:53 pm 13:53 Sunny 48 8.9 13 -10.6 24 24 WNW 13 20 30.19 1023 10 16 0.00 0.00
2:53 pm 14:53 Sunny 48 8.9 13 -10.6 24 24 NW 13 20 30.21 1023 10 16 0.00 0.00
3:53 pm 15:53 Sunny 43 6.1 14 -10 31 31 WNW 7 11 30.23 1024 10 16 0.00 0.00
4:53 pm 16:53 Clear 37 2.8 12 -11.1 36 36 WSW 8 13 30.24 1024 10 16 0.00 0.00
5:53 pm 17:53 Clear 34 1.1 11 -11.7 38 38 WNW 7 11 30.26 1025 10 16 0.00 0.00
6:53 pm 18:53 Clear 32 0 10 -12.2 40 40 WNW 8 13 30.29 1026 10 16 0.00 0.00
7:53 pm 19:53 Clear 26 -3.3 11 -11.7 53 53 NW 6 9 30.31 1026 10 16 0.00 0.00
8:53 pm 20:53 Clear 26 -3.3 12 -11.1 55 55 NNW 7 11 30.27 1025 10 16 0.00 0.00
9:53 pm 21:53 Clear 25 -3.9 11 -11.7 55 55 NW 7 11 30.26 1025 10 16 0.00 0.00
10:53 pm 22:53 Clear 26 -3.3 11 -11.7 53 53 NW 6 9 30.23 1024 10 16 0.00 0.00
11:53 pm 23:53 Clear 24 -4.4 11 -11.7 57 57 NNW 8 13 30.20 1023 10 16 0.00 0.00

Powered by AerisWeather